Location: *
(42.9800°N, 13.1900°E)
Time: 01:23:45
(UTC+00:00)

Daily predictions for brighter satellites

Satellite Brightness Start Highest point End
(mag) Time Altitude Azimuth Time Altitude Azimuth Time Altitude Azimuth
Cosmos 2344 4.4 00:44:20 40° E 00:44:20 40° E 00:50:13 10° NE
Cosmos 2278 Rocket 4.4 00:51:01 19° N 00:51:01 19° N 00:52:53 10° N
SL-16 R/B 4.2 00:53:22 25° NNW 00:53:22 25° NNW 00:55:48 10° NNW
Cosmos 1943 Rocket 3.9 01:08:04 27° ENE 01:08:04 27° ENE 01:11:07 10° NE
CZ-2D R/B 4.0 01:06:34 10° N 01:08:34 24° N 01:08:34 24° N
NOSS 3-2 (A) 4.3 01:17:03 45° NE 01:17:03 45° NE 01:21:29 10° NE
ATLAS 5 CENTAUR R/B 4.4 01:18:58 14° N 01:18:58 14° N 01:20:14 10° N
ATLAS 3B R/B 3.5 01:19:23 41° E 01:19:23 41° E 01:24:42 10° NE
NOSS 3-2 (C) 4.3 01:20:40 44° ENE 01:20:40 44° ENE 01:25:19 10° NE
ADEOS II 2.7 01:52:30 10° NNE 01:56:26 52° NNE 01:56:26 52° NNE
CENTAUR R/B 2.5 01:59:00 75° ESE 01:59:00 75° ESE 02:05:51 10° NE
Cosmos 2369 Rocket 2.3 02:07:32 71° N 02:07:32 71° N 02:12:39 10° NNE
Lacrosse 5 3.8 02:08:52 14° NNW 02:12:08 25° NNE 02:16:19 10° E
Resurs 1-4 Rocket 4.0 02:08:14 10° NNW 02:10:11 18° NNW 02:10:11 18° NNW
Cosmos 44 3.6 02:17:16 63° ESE 02:17:16 63° ESE 02:21:51 10° NE
Cosmos 1707 Rocket 4.2 02:19:52 53° NNE 02:19:52 53° NNE 02:23:17 10° N
USA 238 DEB 4.3 02:21:37 37° WNW 02:22:24 39° NW 02:28:51 10° NNE
USA 238 4.3 02:21:42 38° WNW 02:22:29 39° NW 02:28:58 10° NNE
Unknown 4.5 02:26:40 46° NNE 02:26:40 46° NNE 02:29:48 10° NE
Unknown 4.4 02:28:15 47° NNE 02:28:15 47° NNE 02:31:28 10° NE
Atlas Centaur 2 3.8 02:29:28 26° S 02:29:28 26° S 02:34:45 10° SE
Unknown 4.4 02:29:52 47° NNE 02:29:52 47° NNE 02:33:09 10° NE
Cosmos 1733 Rocket 4.0 02:24:47 10° N 02:29:07 48° ENE 02:33:17 11° SSE
SeaSat 1 3.8 02:27:11 10° NE 02:31:43 35° ESE 02:34:22 21° SSE
Unknown 4.3 02:33:04 48° N 02:33:04 48° N 02:36:29 10° NE
Cosmos 1092 Rocket 3.8 02:31:12 45° S 02:33:14 89° W 02:39:26 10° N
Starlink (trailer) 4.3 02:34:37 49° N 02:34:37 49° N 02:38:05 10° NE
Unknown 4.3 02:36:16 48° N 02:36:16 48° N 02:39:47 10° NE
Unknown 4.2 02:37:51 48° N 02:37:51 48° N 02:41:26 10° NE
SL-24 DEB 4.3 02:35:57 42° SSE 02:37:31 76° E 02:42:14 10° N
ARIANE 5 R/B 3.4 02:33:13 10° N 02:36:58 34° NW 02:36:58 34° NW
SL-4 R/B 2.4 02:41:21 49° ENE 02:41:21 49° ENE 02:44:22 10° ESE
ADEOS 4.0 02:36:12 10° NNE 02:41:22 59° ESE 02:44:41 22° S
Meteor 1-10 Rocket 4.4 02:38:40 28° S 02:41:54 78° E 02:47:51 10° NNE
Unknown 4.2 02:44:15 46° NNW 02:44:15 46° NNW 02:48:05 10° NE
Unknown 4.2 02:45:53 46° NNW 02:45:53 46° NNW 02:49:47 10° NE
Unknown 4.2 02:46:20 45° NNW 02:46:20 45° NNW 02:50:15 10° NE
Meteor 1-11 Rocket 4.2 02:43:23 10° N 02:48:55 59° ENE 02:54:21 10° SSE
Unknown 4.2 02:49:03 44° NNW 02:49:04 44° NNW 02:53:03 10° NE
Cosmos 1943 Rocket 2.9 02:49:36 34° WNW 02:49:50 34° NW 02:54:53 10° N
Cosmos 1812 3.6 02:48:22 26° SSE 02:50:12 47° E 02:53:56 10° NNE
Unknown 4.3 02:50:43 41° NNW 02:50:50 42° NNW 02:54:48 10° NE
CZ-2D R/B 4.3 02:49:29 10° NW 02:49:53 11° NW 02:49:53 11° NW
Unknown 4.3 02:51:39 42° NNW 02:51:48 42° NNW 02:55:46 10° NE
Nadezhda 4 Rocket 4.3 02:52:12 40° W 02:52:44 41° WNW 02:58:29 10° N
Unknown 4.3 02:53:53 40° NW 02:54:08 40° NNW 02:58:05 10° NE
Cosmos 1315 Rocket 3.8 02:51:45 17° SSE 02:54:39 48° E 02:58:39 10° NNE
Unknown 4.3 02:55:26 39° NW 02:55:45 40° NNW 02:59:42 10° NE
USA 215 4.2 02:50:09 10° ENE 02:56:17 41° SE 03:01:26 14° SSW
Unknown 4.3 02:55:59 39° NW 02:56:20 40° NNW 03:00:16 10° NE
Cosmos 1627 Rocket 4.4 02:52:56 23° SSW 02:57:05 79° W 03:03:31 10° N
Cosmos 2344 4.2 02:54:20 31° W 02:57:19 42° NW 03:05:16 10° NNE
Unknown 4.3 02:58:32 38° NW 02:58:59 40° NNW 03:02:55 10° NE
Unknown 4.4 03:01:48 35° NW 03:02:25 37° NNW 03:06:18 10° NE
Unknown 4.5 03:03:22 34° NW 03:04:04 37° NNW 03:07:56 10° NE
ATLAS 3B R/B 3.1 03:06:40 31° W 03:09:12 43° NW 03:15:28 10° NNE
Lacrosse 5 rocket 2.6 03:11:38 27° SSW 03:11:38 27° SSW 03:14:19 10° SSE
NOSS 3-2 (C) 4.4 03:08:07 25° WNW 03:10:20 32° NW 03:16:18 10° NNE
Cosmos 1400 Rocket 3.3 03:11:56 37° WNW 03:11:56 37° WNW 03:15:17 10° N
CZ-3 R/B 4.4 02:28:14 10° W 03:12:50 46° SSW 03:24:26 10° SE
OPS 6432 4.4 03:14:27 42° SSW 03:15:34 85° SE 03:18:43 10° NE
Spot 2 4.4 03:13:04 10° N 03:17:29 48° WNW 03:18:57 34° WSW
Cosmos 1553 Rocket 4.0 03:12:18 10° N 03:18:36 88° E 03:24:45 10° S
Aureole 2 Rocket 1.6 03:19:49 74° NW 03:19:49 74° NW 03:22:22 10° NNE
Cosmos 1666 4.2 03:17:13 10° N 03:20:45 37° ENE 03:24:16 10° SSE
Cosmos 773 Rocket 3.9 03:17:55 19° SSW 03:21:42 80° WNW 03:26:53 10° NNE
Cosmos 2242 Rocket 3.5 03:18:47 13° SSW 03:22:49 77° W 03:27:20 10° N
IDEFIX/ARIANE 42P 2.5 03:17:38 10° N 03:22:52 67° WNW 03:27:33 13° SSW
Meteor 1-31 Rocket 4.1 03:19:11 10° NNE 03:22:54 40° E 03:26:34 10° S
Cosmos 1340 2.6 03:21:10 10° N 03:24:59 88° E 03:28:45 10° S
H-2A R/B 2.1 03:21:59 10° N 03:25:48 70° WNW 03:28:28 19° SSW
Cosmos 1862 Rocket 3.9 03:24:47 26° SW 03:26:55 46° WNW 03:31:16 10° N
Iridium 4 Rocket 3.7 03:26:11 29° WSW 03:27:21 34° W 03:31:16 10° NNW
USA 81 4.1 03:23:44 13° SSW 03:28:23 54° W 03:33:35 10° N
Meteor 1-5 Rocket 4.2 03:23:43 10° NNW 03:29:02 55° W 03:34:32 10° S
Cosmos 2084 Rocket 3.3 03:26:11 10° NW 03:30:35 77° SW 03:34:54 10° SSE
USA 267 4.5 03:24:45 10° E 03:30:42 39° NNE 03:36:39 10° NW
Cosmos 2026 Rocket 4.3 03:26:46 16° SW 03:31:37 46° WNW 03:37:44 10° N
Cosmos 1417 Rocket 4.5 03:28:45 10° NNW 03:35:04 72° W 03:41:23 10° S
ADEOS II 3.9 03:34:23 10° NNW 03:36:41 13° WNW 03:37:22 13° WNW
Cosmos 1536 2.7 03:33:40 10° NNW 03:37:37 66° W 03:41:34 10° S
Cosmos 44 Rocket 3.4 03:33:33 13° SSW 03:38:04 85° ESE 03:43:02 10° NE
Cosmos 1346 Rocket 2.8 03:34:17 10° NNW 03:38:19 60° W 03:42:20 10° S
Timation 2 Rocket 3.9 03:32:37 10° NW 03:38:26 52° WSW 03:44:11 10° S
Okean 1-7 3.3 03:35:42 10° S 03:40:04 72° E 03:44:28 10° NNE
Cosmos 1656 Rocket 4.5 03:41:58 19° WSW 03:45:14 33° NW 03:50:20 10° N
Cosmos 2227 Rocket 4.0 03:41:11 10° N 03:46:20 34° NE 03:51:26 10° ESE
Cosmos 2219 4.0 03:43:01 10° NNW 03:48:39 57° ENE 03:54:11 10° SE
MSX 3.9 03:44:17 10° N 03:49:58 61° WNW 03:55:35 10° SSW
CENTAUR R/B 3.8 03:46:12 15° W 03:50:26 29° NNW 03:56:35 10° NNE
Meteor 2-13 Rocket 4.5 03:44:33 10° S 03:50:43 89° E 03:56:55 10° N
CZ-2C R/B 2.4 03:46:10 10° NNE 03:51:06 83° WNW 03:56:10 10° SSW
Cosmos 2369 Rocket 4.0 03:49:20 12° WNW 03:51:53 15° NW 03:55:11 10° N
COSMO-SKYMED 1 4.0 03:48:18 10° SE 03:52:22 41° ENE 03:56:28 10° N
Cosmos 1655 Rocket 4.0 03:46:59 10° SSW 03:53:07 62° W 03:59:21 10° N
Lacrosse 5 1.9 03:50:37 10° NW 03:55:42 88° NE 04:00:45 10° SE
Cosmos 2297 Rocket 3.6 03:51:44 10° NNW 03:57:07 42° ENE 04:02:27 10° SE
Cosmos 1538 Rocket 4.2 03:52:33 10° SW 03:57:34 49° WNW 04:02:35 10° N
Cosmos 1908 Rocket 3.8 03:53:45 10° NNW 03:57:54 45° W 04:02:02 10° SSW
Okean 2 Rocket 4.5 03:53:47 10° N 03:58:08 44° ENE 04:02:26 10° SSE
CZ-4B R/B 3.1 03:53:35 10° N 03:58:08 77° WNW 04:02:35 10° SSW
S3M 4.1 03:54:36 10° NNW 04:00:38 57° W 04:06:43 10° SSW
Cosmos 1500 4.3 03:58:22 10° NW 04:01:23 23° W 04:04:23 10° SW
TSX-5 3.8 04:00:32 10° SSW 04:03:47 60° ESE 04:06:54 10° NE
SeaSat 1 3.2 04:04:44 10° N 04:09:10 34° NW 04:13:35 10° WSW
Okean O Rocket 3.0 04:09:54 10° NNE 04:14:10 44° E 04:18:25 10° S
Atlas Centaur 2 4.4 04:12:50 10° WSW 04:17:25 18° SSW 04:22:27 10° SSE
SL-4 R/B 3.0 04:17:25 10° W 04:20:13 22° SW 04:23:07 10° S
CZ-4B R/B 4.4 04:22:04 10° N 04:25:24 33° WNW 04:28:41 10° SW
